Location: Oshawa
(43.9000°N, 78.8670°W)
Time: 19:52:08
(UTC-05:00)

SPOT 5 - Pass Details

Date: 28 June 2018
Orbit: 623 x 815 km, 98.3° (Epoch: 14 November)

Event Time Altitude Azimuth Distance (km) Brightness Sun altitude
Exits shadow 22:51:11 19° 173° (S) 1,812 4.4 -14.8°
Maximum altitude 22:55:01 77° 257° (WSW) 829 3.2 -15.2°
Drops below altitude 10° 23:00:23 10° 344° (NNW) 2,412 6.8 -15.7°
Sets 23:02:46 0° 346° (NNW) 3,351 7.8 -16.0°
